FW3885 Weather Reports


Display with metric or nautical units.
time (UTC)temp
F
wind
direction
speed
MPH
gust
MPH
rain 1hr
in
rain 24hr
in
rain mn
in
humidity
%
barometer
mb
20230201122539 28 56 17.0 22.0 0.00 0.00 0.00 91 1021.5
20230201121939 28 27 16.0 22.0 0.00 0.00 0.00 91 1021.8
20230201121339 27 41 16.0 21.0 0.00 0.00 0.00 91 1021.7
20230201120740 27 33 16.0 21.0 0.00 0.00 0.00 91 1021.4
20230201120139 27 46 15.0 21.0 0.00 0.00 0.00 91 1021.5
20230201115539 27 48 16.0 21.0 0.00 0.00 0.00 92 1021.3
20230201114939 27 54 17.0 21.0 0.00 0.00 0.00 92 1021.5
20230201114339 27 56 16.0 24.0 0.00 0.00 0.00 92 1021.4
20230201113739 27 61 17.0 24.0 0.00 0.00 0.00 92 1021.4
20230201113139 27 47 17.0 27.0 0.00 0.00 0.00 92 1021.5
20230201112539 27 53 18.0 27.0 0.00 0.00 0.00 92 1021.4
20230201112039 27 43 19.0 23.0 0.00 0.00 0.00 92 1021.5
20230201111439 27 50 18.0 25.0 0.00 0.00 0.00 92 1021.5
20230201110839 27 52 18.0 23.0 0.00 0.00 0.00 91 1021.4
20230201110239 27 43 18.0 23.0 0.00 0.00 0.00 91 1021.6
20230201105639 27 39 19.0 24.0 0.00 0.00 0.00 90 1021.4
20230201105039 27 39 18.0 24.0 0.00 0.00 0.00 90 1021.4
20230201104439 27 42 18.0 21.0 0.00 0.00 0.00 89 1021.5
20230201103839 27 49 16.0 29.0 0.00 0.00 0.00 88 1021.7
20230201103239 27 52 18.0 29.0 0.00 0.00 0.00 87 1021.5
20230201102739 27 52 15.0 23.0 0.00 0.00 0.00 87 1021.6
20230201102139 27 45 16.0 22.0 0.00 0.00 0.00 86 1021.5
20230201101539 27 56 15.0 23.0 0.00 0.00 0.00 86 1021.5
20230201100939 28 44 18.0 23.0 0.00 0.00 0.00 85 1021.7
20230201100339 27 41 15.0 20.0 0.00 0.00 0.00 84 1021.7
20230201095739 27 48 16.0 23.0 0.00 0.00 0.00 84 1021.5
20230201095139 27 39 18.0 25.0 0.00 0.00 0.00 83 1021.4
20230201094539 28 46 17.0 25.0 0.00 0.00 0.00 83 1021.3
20230201094039 28 60 18.0 25.0 0.00 0.00 0.00 83 1021.0
20230201093439 28 49 17.0 23.0 0.00 0.00 0.00 82 1021.1
20230201092839 28 39 20.0 25.0 0.00 0.00 0.00 82 1021.2
20230201092239 28 52 17.0 25.0 0.00 0.00 0.00 81 1021.2
20230201091639 29 55 18.0 25.0 0.00 0.00 0.00 81 1021.0
20230201091039 28 53 19.0 26.0 0.00 0.00 0.00 81 1021.2
20230201090539 28 61 20.0 26.0 0.00 0.00 0.00 81 1020.9
20230201090039 28 51 17.0 24.0 0.00 0.00 0.00 81 1021.1
20230201085439 28 36 19.0 25.0 0.00 0.00 0.00 81 1021.1
20230201084839 28 38 16.0 25.0 0.00 0.00 0.00 82 1021.3
20230201084239 28 41 18.0 22.0 0.00 0.00 0.00 82 1021.3
20230201083639 28 47 18.0 23.0 0.00 0.00 0.00 82 1021.1
20230201083039 28 52 18.0 23.0 0.00 0.00 0.00 81 1021.5
20230201082439 28 30 17.0 22.0 0.00 0.00 0.00 80 1021.3
20230201081839 28 64 17.0 25.0 0.00 0.00 0.00 80 1021.3
20230201081239 28 38 20.0 27.0 0.00 0.00 0.00 79 1021.2
20230201080639 29 42 18.0 28.0 0.00 0.00 0.00 77 1020.9
20230201080039 29 54 19.0 28.0 0.00 0.00 0.00 76 1021.0
20230201075539 29 48 18.0 23.0 0.00 0.00 0.00 75 1021.1
20230201074939 29 49 15.0 23.0 0.00 0.00 0.00 73 1021.0
20230201074339 29 35 20.0 23.0 0.00 0.00 0.00 74 1021.1
20230201073738 29 51 18.0 21.0 0.00 0.00 0.00 73 1021.1
20230201073139 29 35 17.0 22.0 0.00 0.00 0.00 73 1021.3
20230201072539 29 48 16.0 22.0 0.00 0.00 0.00 72 1021.1
20230201071938 29 54 17.0 22.0 0.00 0.00 0.00 72 1021.0
20230201071338 29 34 19.0 22.0 0.00 0.00 0.00 72 1020.9
20230201070739 29 64 16.0 23.0 0.00 0.00 0.00 72 1021.2
20230201070138 29 45 17.0 23.0 0.00 0.00 0.00 72 1021.1
20230201065538 29 25 18.0 26.0 0.00 0.00 0.00 72 1021.2
20230201065039 29 35 18.0 24.0 0.00 0.00 0.00 71 1021.0
20230201064438 30 44 20.0 24.0 0.00 0.00 0.00 72 1021.0
20230201063839 29 39 20.0 26.0 0.00 0.00 0.00 70 1021.1
20230201063339 30 26 19.0 26.0 0.00 0.00 0.00 70 1020.9
20230201062739 29 32 18.0 26.0 0.00 0.00 0.00 69 1020.9
20230201062239 29 49 19.0 24.0 0.00 0.00 0.00 68 1021.1
20230201061639 29 12 19.0 33.0 0.00 0.00 0.00 66 1021.0
20230201061038 30 44 21.0 27.0 0.00 0.00 0.00 69 1021.1
20230201060538 30 46 20.0 26.0 0.00 0.00 0.00 67 1021.2
20230201055939 30 32 20.0 24.0 0.00 0.00 0.00 65 1021.5
20230201055339 30 28 18.0 24.0 0.00 0.00 0.00 63 1021.4
20230201054739 29 21 16.0 26.0 0.00 0.00 0.00 61 1021.8
20230201054238 29 16 19.0 27.0 0.00 0.00 0.00 60 1021.3
20230201053639 29 15 19.0 27.0 0.00 0.00 0.00 60 1021.4
20230201053138 29 20 18.0 25.0 0.00 0.00 0.00 58 1021.7
20230201052538 29 6 19.0 25.0 0.00 0.00 0.00 59 1021.9
20230201051939 29 23 19.0 29.0 0.00 0.00 0.00 59 1021.7
20230201051338 29 10 21.0 29.0 0.00 0.00 0.00 59 1021.9
20230201050738 29 22 21.0 29.0 0.00 0.00 0.00 59 1021.7
20230201050238 29 20 21.0 29.0 0.00 0.00 0.00 62 1021.8
20230201045738 29 20 21.0 27.0 0.00 0.00 0.00 61 1021.9
20230201045238 29 20 23.0 28.0 0.00 0.00 0.00 60 1021.8
20230201044638 30 31 22.0 28.0 0.00 0.00 0.00 60 1021.7
20230201044138 30 10 21.0 30.0 0.00 0.00 0.00 60 1021.9
20230201043638 30 19 21.0 26.0 0.00 0.00 0.00 59 1022.2
20230201043038 30 15 22.0 31.0 0.00 0.00 0.00 60 1022.2
20230201042538 30 15 22.0 29.0 0.00 0.00 0.00 61 1022.0
20230201041938 30 21 24.0 31.0 0.00 0.00 0.00 60 1022.1
20230201041438 30 18 21.0 31.0 0.00 0.00 0.00 62 1022.3
20230201040938 30 20 23.0 31.0 0.00 0.00 0.00 59 1022.3
20230201040438 30 16 24.0 33.0 0.00 0.00 0.00 59 1022.1
20230201035938 30 12 23.0 29.0 0.00 0.00 0.00 59 1022.2
20230201035338 30 4 23.0 30.0 0.00 0.00 0.00 60 1022.4
20230201034838 30 20 21.0 32.0 0.00 0.00 0.00 60 1022.3
20230201034338 30 3 22.0 30.0 0.00 0.00 0.00 62 1022.2
20230201033838 30 13 21.0 28.0 0.00 0.00 0.00 61 1022.3
20230201033238 30 358 18.0 28.0 0.00 0.00 0.00 61 1022.4
20230201032738 30 3 23.0 30.0 0.00 0.00 0.00 62 1022.5
20230201032238 31 27 25.0 30.0 0.00 0.00 0.00 64 1022.5
20230201031738 30 8 21.0 28.0 0.00 0.00 0.00 63 1022.5
20230201031238 31 4 17.0 28.0 0.00 0.00 0.00 66 1022.5
20230201030738 30 8 21.0 30.0 0.00 0.00 0.00 63 1022.2
20230201030138 31 13 23.0 31.0 0.00 0.00 0.00 65 1022.3
20230201025638 30 358 17.0 27.0 0.00 0.00 0.00 63 1022.4
20230201025038 31 3 20.0 30.0 0.00 0.00 0.00 64 1022.2
20230201024538 31 7 21.0 26.0 0.00 0.00 0.00 64 1022.1
20230201024038 31 350 16.0 28.0 0.00 0.00 0.00 64 1022.1
20230201023538 31 4 22.0 28.0 0.00 0.00 0.00 65 1022.0
20230201023038 31 352 20.0 29.0 0.00 0.00 0.00 66 1022.0
20230201022538 31 340 14.0 30.0 0.00 0.00 0.00 67 1022.1
20230201022038 31 345 16.0 28.0 0.00 0.00 0.00 66 1022.1
20230201021538 31 2 18.0 27.0 0.00 0.00 0.00 67 1022.0
20230201021038 30 345 14.0 24.0 0.00 0.00 0.00 66 1022.1
20230201020438 30 343 15.0 25.0 0.00 0.00 0.00 67 1022.0
20230201015838 31 343 16.0 27.0 0.00 0.00 0.00 66 1022.1
20230201015338 31 1 18.0 30.0 0.00 0.00 0.00 68 1022.0
20230201014838 31 16 21.0 26.0 0.00 0.00 0.00 69 1021.9
20230201014338 31 356 15.0 24.0 0.00 0.00 0.00 68 1022.0
20230201013738 31 352 17.0 24.0 0.00 0.00 0.00 69 1022.0
20230201013138 31 7 19.0 29.0 0.00 0.00 0.00 69 1021.7
20230201012638 31 8 21.0 29.0 0.00 0.00 0.00 70 1021.8
20230201012138 31 338 16.0 23.0 0.00 0.00 0.00 67 1021.9
20230201011538 31 336 14.0 25.0 0.00 0.00 0.00 68 1021.8
20230201010938 31 327 14.0 26.0 0.00 0.00 0.00 68 1021.9
20230201010338 31 337 14.0 26.0 0.00 0.00 0.00 68 1021.8
20230201005838 31 355 16.0 26.0 0.00 0.00 0.00 69 1021.7
20230201005338 31 346 16.0 26.0 0.00 0.00 0.00 69 1021.3
20230201004738 31 340 14.0 25.0 0.00 0.00 0.00 67 1021.2
20230201004138 31 342 15.0 27.0 0.00 0.00 0.00 68 1021.2
20230201003538 31 350 16.0 28.0 0.00 0.00 0.00 69 1021.3
20230201003038 31 356 17.0 27.0 0.00 0.00 0.00 69 1021.4
20230201002538 31 342 17.0 24.0 0.00 0.00 0.00 70 1021.3
20230201002038 31 341 15.0 24.0 0.00 0.00 0.00 69 1021.1
20230201001538 31 324 13.0 26.0 0.00 0.00 0.00 68 1021.1
20230201001038 31 334 16.0 26.0 0.00 0.00 0.00 70 1021.2
20230131235638 31 343 13.0 25.0 0.00 0.00 0.00 71 1021.1
20230131235037 31 332 13.0 22.0 0.00 0.00 0.00 70 1021.3
20230131234438 31 342 14.0 26.0 0.00 0.00 0.00 71 1021.0
20230131233838 31 325 10.0 26.0 0.00 0.00 0.00 71 1021.2
20230131233338 32 357 17.0 29.0 0.00 0.00 0.00 72 1020.9
20230131232838 31 357 16.0 26.0 0.00 0.00 0.00 73 1020.9
20230131232237 31 343 14.0 25.0 0.00 0.00 0.00 71 1021.0
20230131231638 32 354 15.0 25.0 0.00 0.00 0.00 73 1020.9
20230131231137 32 329 13.0 26.0 0.00 0.00 0.00 71 1020.9
20230131230637 32 358 16.0 24.0 0.00 0.00 0.00 74 1020.6
20230131230038 31 332 12.0 24.0 0.00 0.00 0.00 71 1020.7
20230131225438 32 346 13.0 24.0 0.00 0.00 0.00 73 1020.8
20230131224838 32 343 15.0 26.0 0.00 0.00 0.00 74 1020.6
20230131224338 32 338 12.0 25.0 0.00 0.00 0.00 72 1020.5
20230131223737 32 351 15.0 25.0 0.00 0.00 0.00 74 1020.3
20230131223237 32 341 14.0 23.0 0.00 0.00 0.00 73 1020.2
20230131222638 32 343 14.0 27.0 0.00 0.00 0.00 73 1020.2
20230131222138 33 1 18.0 27.0 0.00 0.00 0.00 75 1019.9
20230131221637 33 358 15.0 25.0 0.00 0.00 0.00 74 1020.2
20230131221138 32 344 14.0 24.0 0.00 0.00 0.00 73 1020.2
20230131220538 32 343 13.0 23.0 0.00 0.00 0.00 73 1020.3
20230131215938 33 354 15.0 24.0 0.00 0.00 0.00 74 1020.2
20230131215338 33 8 16.0 24.0 0.00 0.00 0.00 75 1020.2
20230131214738 33 340 16.0 24.0 0.00 0.00 0.00 74 1020.2
20230131214138 33 338 14.0 25.0 0.00 0.00 0.00 74 1020.2
20230131213537 33 339 15.0 25.0 0.00 0.00 0.00 75 1020.1
20230131212938 33 343 15.0 24.0 0.00 0.00 0.00 74 1020.1
20230131212338 33 343 13.0 24.0 0.00 0.00 0.00 76 1020.1
20230131211738 33 346 13.0 25.0 0.00 0.00 0.00 75 1020.1
20230131211138 33 336 12.0 27.0 0.00 0.00 0.00 75 1019.9
20230131210538 33 5 16.0 27.0 0.00 0.00 0.00 77 1019.9
20230131210037 33 343 16.0 26.0 0.00 0.00 0.00 77 1019.7
20230131205537 33 346 16.0 26.0 0.00 0.00 0.00 76 1018.3
20230131204937 34 341 14.0 23.0 0.00 0.00 0.00 77 1019.6
20230131204337 34 338 13.0 23.0 0.00 0.00 0.00 78 1019.5
20230131203737 34 1 17.0 26.0 0.00 0.00 0.00 78 1019.6
20230131203138 34 355 16.0 26.0 0.00 0.00 0.00 79 1019.5
20230131202538 34 354 14.0 24.0 0.00 0.00 0.00 79 1019.7
20230131201938 34 343 15.0 24.0 0.00 0.00 0.00 79 1019.6
20230131201338 34 346 13.0 24.0 0.00 0.00 0.00 79 1019.6
20230131200738 34 324 12.0 19.0 0.00 0.00 0.00 80 1019.6
20230131200138 34 340 13.0 19.0 0.00 0.00 0.00 80 1019.5
20230131195538 34 333 13.0 22.0 0.00 0.00 0.00 81 1019.5
20230131194938 34 339 13.0 23.0 0.00 0.00 0.00 81 1019.4
20230131194337 34 341 14.0 24.0 0.00 0.00 0.00 80 1019.5
20230131193737 34 337 11.0 23.0 0.00 0.00 0.00 81 1019.4
20230131193137 34 348 14.0 22.0 0.00 0.00 0.00 81 1019.3
20230131192537 34 330 12.0 22.0 0.00 0.00 0.00 81 1019.3
20230131191937 34 336 12.0 18.0 0.00 0.00 0.00 81 1019.1
20230131191337 34 319 10.0 17.0 0.00 0.00 0.00 81 1019.0
20230131190737 35 320 11.0 21.0 0.00 0.00 0.00 80 1019.1
20230131190137 35 339 10.0 21.0 0.00 0.00 0.00 81 1019.0
20230131185537 35 346 15.0 25.0 0.00 0.00 0.00 82 1018.7
20230131184937 36 351 12.0 23.0 0.00 0.00 0.00 82 1018.7
20230131184337 35 346 16.0 23.0 0.00 0.00 0.00 83 1018.7
20230131183737 35 353 15.0 22.0 0.00 0.00 0.00 84 1018.7
20230131183137 35 339 15.0 21.0 0.00 0.00 0.00 85 1018.5
20230131182537 35 347 11.0 22.0 0.00 0.00 0.00 86 1018.8
20230131181937 35 332 10.0 22.0 0.00 0.00 0.00 87 1018.9
20230131181337 35 340 12.0 21.0 0.00 0.00 0.00 87 1018.7
20230131180737 34 349 12.0 21.0 0.00 0.00 0.00 89 1018.6
20230131180137 34 331 10.0 20.0 0.00 0.00 0.00 89 1018.8
20230131175537 34 331 12.0 20.0 0.00 0.00 0.00 90 1018.8
20230131174937 34 332 12.0 20.0 0.00 0.00 0.00 91 1018.9
20230131174337 34 334 12.0 19.0 0.00 0.00 0.00 91 1019.0
20230131173737 34 312 7.0 15.0 0.00 0.00 0.00 92 1019.2
20230131173137 34 319 10.0 15.0 0.00 0.00 0.00 92 1019.3
20230131172537 34 316 7.0 18.0 0.00 0.00 0.00 93 1019.3
20230131171937 34 327 10.0 18.0 0.00 0.00 0.00 93 1019.3
20230131171338 34 328 10.0 18.0 0.00 0.00 0.00 94 1019.3
20230131170737 34 328 8.0 18.0 0.00 0.00 0.00 95 1019.3
20230131170137 34 334 9.0 17.0 0.00 0.00 0.00 95 1019.4
20230131165537 34 330 9.0 17.0 0.00 0.00 0.00 95 1019.3
20230131164938 34 320 8.0 12.0 0.00 0.00 0.00 95 1019.5
20230131164337 34 310 7.0 13.0 0.00 0.00 0.00 95 1019.6
20230131163737 33 318 7.0 14.0 0.00 0.00 0.00 95 1019.6
20230131163137 33 311 6.0 14.0 0.00 0.00 0.00 95 1019.7
20230131162537 33 307 8.0 13.0 0.00 0.00 0.00 95 1019.7
20230131161937 33 299 6.0 11.0 0.00 0.00 0.00 95 1019.7
20230131161337 33 304 6.0 11.0 0.00 0.00 0.00 95 1019.7
20230131160737 32 300 7.0 11.0 0.00 0.00 0.00 95 1019.8
20230131160137 32 295 6.0 10.0 0.00 0.00 0.00 95 1019.9
20230131155537 32 292 7.0 14.0 0.00 0.00 0.00 95 1019.8
20230131154938 32 321 7.0 14.0 0.00 0.00 0.00 95 1019.9
20230131154337 32 320 6.0 15.0 0.00 0.00 0.00 95 1019.8
20230131153737 32 331 11.0 15.0 0.00 0.00 0.00 95 1019.8
20230131153137 32 319 8.0 17.0 0.00 0.00 0.00 95 1019.9
20230131152537 32 319 11.0 17.0 0.00 0.00 0.00 95 1019.8
20230131151937 32 329 9.0 18.0 0.00 0.00 0.00 95 1019.7
20230131151337 32 330 9.0 17.0 0.00 0.00 0.00 95 1019.6
20230131150737 32 326 10.0 20.0 0.00 0.00 0.00 95 1019.7
20230131150136 32 323 12.0 20.0 0.00 0.00 0.00 95 1019.5
20230131145537 32 337 14.0 18.0 0.00 0.00 0.00 95 1019.4
20230131144937 32 329 12.0 18.0 0.00 0.00 0.00 95 1019.5
20230131144337 32 335 10.0 19.0 0.00 0.00 0.00 95 1019.4
20230131143737 32 333 11.0 21.0 0.00 0.00 0.00 95 1019.3
20230131143137 33 319 12.0 25.0 0.00 0.00 0.00 95 1019.4
20230131142637 33 328 16.0 25.0 0.00 0.00 0.00 95 1019.3
20230131142037 33 339 17.0 25.0 0.00 0.00 0.00 95 1019.1
20230131141437 33 343 11.0 20.0 0.00 0.00 0.00 95 1019.0
20230131140837 33 324 13.0 18.0 0.00 0.00 0.00 95 1018.9
20230131140237 33 334 11.0 23.0 0.00 0.00 0.00 95 1018.8
20230131135637 33 332 14.0 23.0 0.00 0.00 0.00 95 1018.8
20230131135037 34 340 10.0 21.0 0.00 0.00 0.00 95 1018.7
20230131134437 34 335 10.0 21.0 0.00 0.00 0.00 95 1018.7
20230131133837 34 337 12.0 21.0 0.00 0.00 0.00 95 1018.8
20230131133237 34 325 11.0 20.0 0.00 0.00 0.00 95 1018.8
20230131132637 34 343 13.0 25.0 0.00 0.00 0.00 95 1018.7
20230131132036 34 331 14.0 25.0 0.00 0.00 0.00 94 1018.7
20230131131437 34 332 13.0 21.0 0.00 0.00 0.00 94 1018.4
20230131130837 34 350 13.0 21.0 0.00 0.00 0.00 94 1018.2
20230131130237 34 344 13.0 20.0 0.00 0.00 0.00 94 1018.3
20230131125637 34 333 14.0 22.0 0.00 0.00 0.00 94 1018.3
20230131125037 34 337 14.0 20.0 0.00 0.00 0.00 94 1018.3
20230131124436 34 344 12.0 19.0 0.00 0.00 0.00 94 1017.9
20230131123837 34 334 12.0 19.0 0.00 0.00 0.00 94 1018.3
20230131123237 35 329 10.0 17.0 0.00 0.00 0.00 94 1018.0